Regional Weather Roundup
Issued by NWS

Home | Current Version | Previous Version | Graphics & Text | Print | Product List | Glossary On
Versions: 1 2 3 4 5 6 7 8 9 10 11 12 13 14 15 16 17 18 19 20 21 22 23 24 25 26 27 28 29 30 31 32 33 34 35 36 37 38 39 40 41 42 43 44 45 46 47 48 49 50
000
ASUS43 KIND 211159
RWRIN

WEATHER ROUNDUP FOR INDIANA
NATIONAL WEATHER SERVICE INDIANAPOLIS IN
700 AM EST SUN JAN 21 2018

NOTE: "FAIR" INDICATES FEW OR NO CLOUDS BELOW 12,000 FEET WITH NO
SIGNIFICANT WEATHER AND/OR OBSTRUCTIONS TO VISIBILITY.

* - STATION DOES NOT REPORT WEATHER SUCH AS PRECIPITATION OR FOG.

+ - STATION NOT QUALITY CONTROLLED BY THE NATIONAL WEATHER SERVICE.
    USE DATA WITH CAUTION...ESPECIALLY DEWPOINT AND RELATIVE
    HUMIDITY OBSERVATIONS.

INZ001>003-010>013-019-020-211300-
NORTHWEST INDIANA

CITY           SKY/WX    TMP DP  RH WIND       PRES   REMARKS
GARY /AIRPORT/ CLOUDY    41  37  87 W3        30.00R
KNOX *+        CLOUDY    34  34 100 CALM      30.01S VSB 1/4
MONTICELLO +   FOG       38  37  96 CALM      30.01S VSB 1/2
6HR MIN TEMP:  37; 6HR MAX TEMP:  39;


$$

LMZ046-743>745-211300-
SOUTHERN LAKE MICHIGAN

STATION/POSITION TIME  TEMP    WIND        PRES    WAVE
                       AIR SEA DIR/SP/G            HT
                 (UTC) (F)     (DEG/KT/KT) (MB)    (FT)
BURNS HARBOR     1140   38     290/  4/ 12 1016.3R
MICHIGAN CITY    1130   38     120/  4/  6   N/A

$$

INZ004-005-014>016-021>024-211300-
NORTH CENTRAL INDIANA

CITY           SKY/WX    TMP DP  RH WIND       PRES   REMARKS
GOSHEN         FOG       36  34  92 SE6       30.02S VSB 1/4 WCI  31
6HR MIN TEMP:  35; 6HR MAX TEMP:  37;

PERU/GRISSOM   FOG       38  38 100 SE3       30.02S VSB 1/2
6HR MIN TEMP:  38; 6HR MAX TEMP:  39; 6HR PCP: TRACE;

SOUTH BEND     CLOUDY    36  35  96 SE7       30.00F FOG     WCI  30
6HR MIN TEMP:  35; 6HR MAX TEMP:  37;


$$

INZ006>009-017-018-025>027-211300-
NORTHEAST INDIANA

CITY           SKY/WX    TMP DP  RH WIND       PRES   REMARKS
FORT WAYNE     FOG       38  38 100 CALM      30.05S VSB 1/4
6HR MIN TEMP:  37; 6HR MAX TEMP:  39; 6HR PCP: TRACE;

KENDALLVILLE + FOG       35  35 100 CALM      30.03S VSB 1/4

$$

INZ028-029-035-036-043>045-051>053-211300-
WEST CENTRAL INDIANA

CITY           SKY/WX    TMP DP  RH WIND       PRES   REMARKS
LAFAYETTE      FOG       38  38 100 CALM      30.02R VSB 1/4
6HR MIN TEMP:  38; 6HR MAX TEMP:  40;

TERRE HAUTE    CLOUDY    45  42  89 S7        30.03S
6HR MIN TEMP:  37; 6HR MAX TEMP:  45;


$$

INZ030>032-037>040-046>048-054>057-064-065-211300-
CENTRAL INDIANA

CITY           SKY/WX    TMP DP  RH WIND       PRES   REMARKS
COLUMBUS       CLOUDY    41  39  93 S8        30.06
GREENWOOD *+   CLOUDY    43  42  97 S6        30.05S
6HR MIN TEMP:  40; 6HR MAX TEMP:  43;

INDIANAPOLIS   CLOUDY    41  41 100 SE5       30.04S FOG
6HR MIN TEMP:  39; 6HR MAX TEMP:  42; 6HR PCP: TRACE;

-EAGLE CREEK   FOG       41  40  96 CALM      30.03S VSB 3/4
6HR MIN TEMP:  39; 6HR MAX TEMP:  41; 6HR PCP: TRACE;

MT COMFORT *+  CLOUDY    41  41 100 S5        30.05S
SHELBYVILLE    NOT AVBL

$$

INZ033-034-041-042-049-050-058-059-211300-
EAST CENTRAL INDIANA

CITY           SKY/WX    TMP DP  RH WIND       PRES   REMARKS
MUNCIE         CLOUDY    43  41  93 S6        30.04S FOG
6HR MIN TEMP:  41; 6HR MAX TEMP:  43; 6HR PCP:  0.01;

RICHMOND +     CLOUDY    36  36 100 S8        30.07S FOG     WCI  29

$$

INZ060-061-067>069-081>083-085>088-211300-
SOUTHWEST INDIANA

CITY           SKY/WX    TMP DP  RH WIND       PRES   REMARKS
EVANSVILLE     CLOUDY    42  39  89 CALM      30.08S
6HR MIN TEMP:  40; 6HR MAX TEMP:  46;

HUNTINGBURG +  CLOUDY    46  39  76 S8        30.09S
6HR MIN TEMP:  45; 6HR MAX TEMP:  47;


$$

INZ062-063-066-070>080-084-089>092-211300-
SOUTH CENTRAL AND SOUTHEAST INDIANA

CITY           SKY/WX    TMP DP  RH WIND       PRES   REMARKS
BLOOMINGTON    CLOUDY    50  42  74 SW12      30.05R
6HR MIN TEMP:  47; 6HR MAX TEMP:  50;

SEYMOUR +      CLOUDY    45  39  81 S8        30.08R

$$





USA.gov is the U.S. government's official web portal to all federal, state and local government web resources and services.